Aérodrome :







RETROUVEZ-NOUS SUR...

 
LOGIN :

S'inscrire | Disclaimer

   EN    FR    IT 

 









Légende :    VFR   VFR Marginal   IFR   IFR Intensif   IFR Très Intensif
Visi : 
Plafond : 
>= 8 km
>= 3000ft
5 à 8 km
1000 à 3000 ft
1500m à 5 km
500 à 1000 ft
800 à 1500m
200 à 500 ft
< 800m
< 200 ft
Symboles :   Orages  Brouillard  Fortes neiges  Fortes précipitations  Vent > 20 kt






- Altitude de l'aérodrome : 165 ft
- Code IATA : SFJ


BGSF - KangerLussuaq

DERNIER METAR :
  • 261650Z AUTO 06009KT 9999NDV FEW200/// M31/M35 Q1013

METARs EXPIRÉS :
  • 261550Z AUTO 06008KT 9999NDV NCD M33/M37 Q1014
  • 261450Z AUTO 07008KT 9999NDV NCD M33/M37 Q1013

TAF TAF BGSF
Valide du 26 à 12h jusqu'au 27 à 00h UTC


261055Z 2612/2624 06008KT 9999 FEW030
TEMPO 2618/2624 BKN030



MET'MAP, la Météo Aéronautique d'un coup d'oeil ! - Copyright ORBIFLY Décembre 2007 - Disclaimer

ORBIFLY MET'MAP TEAM :

Programmation & Développement : Alexandra Zaïnal
Sur une idée originale de : Baudouin d'Aumeries
Assistance à la programmation : Marc-Olivier Méhu
Soutien technique & logistique : Manuel Goepfert

Contact : metmap@orbifly.com




SOURCES & CREDITS :

   NOAA